This demonstration page uses our WeatherBlox Daily Observations layout. Learn more.

Left ArrowRight Arrow

39.29038, -76.61219

Hourly Observations for December 6, 2020

Temp ( °F °C ) Dew Point ( °F °C ) Humidity (%) Winds ( mph kmh ) Pressure ( in mb ) Visibility ( mi km ) Precip ( " mm )
12:54 am 00:54 Mostly Cloudy 41 5 25 -3.9 53 53 W 8 13 29.94 1014 10 16 0.00 0.00
1:54 am 01:54 Cloudy 41 5 24 -4.4 51 51 WNW 10 17 29.94 1014 10 16 0.00 0.00
2:54 am 02:54 Cloudy 41 5 23 -5 49 49 WNW 12 19 29.95 1014 10 16 0.00 0.00
3:54 am 03:54 Cloudy 40 4.4 23 -5 51 51 WNW 16 26 29.95 1014 10 16 0.00 0.00
4:54 am 04:54 Mostly Cloudy 39 3.9 23 -5 53 53 W 13 20 29.95 1014 10 16 0.00 0.00
5:54 am 05:54 Cloudy 39 3.9 23 -5 53 53 WNW 12 19 29.95 1014 10 16 0.00 0.00
6:54 am 06:54 Mostly Cloudy 39 3.9 23 -5 53 53 WNW 16 26 29.94 1014 10 16 0.00 0.00
7:54 am 07:54 Mostly Cloudy 38 3.3 23 -5 55 55 WNW 13 20 29.96 1015 10 16 0.00 0.00
8:54 am 08:54 Mostly Cloudy 40 4.4 24 -4.4 53 53 WNW 10 17 29.96 1015 10 16 0.00 0.00
9:54 am 09:54 Mostly Cloudy 40 4.4 22 -5.6 49 49 WNW 15 24 29.96 1015 10 16 0.00 0.00
10:54 am 10:54 Partly Cloudy 42 5.6 23 -5 47 47 W 16 26 29.95 1014 10 16 0.00 0.00
11:54 am 11:54 Mostly Sunny 44 6.7 22 -5.6 41 41 WNW 17 28 29.93 1014 10 16 0.00 0.00
12:54 pm 12:54 Mostly Sunny 44 6.7 24 -4.4 45 45 W 17 28 29.91 1013 10 16 0.00 0.00
1:54 pm 13:54 Mostly Sunny 45 7.2 24 -4.4 44 44 WNW 17 28 29.90 1013 10 16 0.00 0.00
2:54 pm 14:54 Mostly Sunny 45 7.2 22 -5.6 40 40 WNW 14 22 29.90 1013 10 16 0.00 0.00
3:54 pm 15:54 Mostly Sunny 43 6.1 21 -6.1 42 42 WNW 9 15 29.91 1013 10 16 0.00 0.00
4:54 pm 16:54 Mostly Clear 40 4.4 21 -6.1 47 47 WNW 10 17 29.92 1013 10 16 0.00 0.00
5:54 pm 17:54 Mostly Clear 38 3.3 22 -5.6 52 52 WNW 8 13 29.94 1014 10 16 0.00 0.00
6:54 pm 18:54 Mostly Clear 37 2.8 22 -5.6 54 54 WNW 9 15 29.95 1014 10 16 0.00 0.00
7:54 pm 19:54 Clear 35 1.7 22 -5.6 59 59 WNW 7 11 29.97 1015 10 16 0.00 0.00
8:54 pm 20:54 Mostly Clear 34 1.1 22 -5.6 61 61 WNW 8 13 29.97 1015 10 16 0.00 0.00
9:54 pm 21:54 Mostly Clear 31 -0.6 21 -6.1 67 67 W 7 11 29.96 1015 10 16 0.00 0.00
10:54 pm 22:54 Mostly Clear 31 -0.6 21 -6.1 67 67 WNW 7 11 29.95 1014 10 16 0.00 0.00
11:54 pm 23:54 Partly Cloudy 32 0 21 -6.1 64 64 WNW 7 11 29.94 1014 10 16 0.00 0.00

Powered by AerisWeather